STARLINK-1074 (44957 NORAD) Tracking and Keplerian Element Data

This shows tracking and keplerian element data for the satellite.

Feedback or suggestion? Click here.




ElementValue
Catalog44957
NameSTARLINK-1074
Epoch Orbit175
Epoch Day188.91667824
Epoch Year2020
RAAN247.1672
Inclination52.999
Eccentricity0.0001184
Argument of Perigee119.7893
Mean Anonmoly2.0622
Mean Motion15.05569678
Decay Rate0.00037617
L11 44957U 20001AV 20188.91667824 .00037617 00000-0 25879-2 0 9991
L22 44957 52.9990 247.1672 0001184 119.7893 2.0622 15.05569678 1753

Live tracking and technical data element details for STARLINK-1074 (NORAD 44957). STARLINK-1074 can be tracked NOW for your location showing map with azimuth and elevation plus other details from your city location.

Track the satellite on the map from your city or location and see movement details for azimuth, elevation, latitude, longitude, range, height, and movement on the map or in text.







IsCatalogInMostPopularTable: catalog: 44957, numindb: 39
Update: records affected: 1



GetName: 44957 STARLINK-1074

Hit Count: updated at: Wed, 08 Jul 2020 04:41:15 GMT